FW3304 Weather Reports


Display with metric or nautical units.
time (UTC)temp
F
wind
direction
speed
MPH
gust
MPH
rain 1hr
in
rain 24hr
in
rain mn
in
humidity
%
barometer
mb
20260906231513 86 30 4.0 9.0 0.00 0.00 0.00 67 1010.5
20260906230016 87 39 5.0 15.0 0.00 0.00 0.00 66 1013.3
20260906230013 87 45 4.0 7.0 0.00 0.00 0.00 66 1010.6
20260906224512 87 44 4.0 8.0 0.00 0.00 0.00 65 1010.6
20260906223101 87 48 6.0 18.0 0.00 0.00 0.00 64 1013.2
20260906223011 87 16 5.0 10.0 0.00 0.00 0.00 64 1010.3
20260906221510 87 37 6.0 13.0 0.00 0.00 0.00 63 1010.3
20260906220016 87 40 9.0 18.0 0.00 0.00 0.00 62 1013.2
20260906220011 88 44 8.0 15.0 0.00 0.00 0.00 62 1010.3
20260906214510 88 45 10.0 17.0 0.00 0.00 0.00 65 1010.5
20260906213016 89 28 7.0 15.0 0.00 0.00 0.00 66 1013.5
20260906213009 89 30 6.0 14.0 0.00 0.00 0.00 66 1010.6
20260906211508 89 46 8.0 14.0 0.00 0.00 0.00 66 1010.5
20260906210036 89 28 6.0 18.0 0.00 0.00 0.00 66 1013.4
20260906210008 89 359 6.0 11.0 0.00 0.00 0.00 66 1010.5
20260906204507 90 11 4.0 12.0 0.00 0.00 0.00 65 1010.5
20260906203016 89 38 9.0 18.0 0.00 0.00 0.00 64 1013.4
20260906203006 89 30 10.0 16.0 0.00 0.00 0.00 64 1010.5
20260906201506 90 37 8.0 17.0 0.00 0.00 0.00 63 1010.6
20260906200036 90 35 8.0 21.0 0.00 0.00 0.00 63 1013.6
20260906200005 90 17 8.0 16.0 0.00 0.00 0.00 63 1010.7
20260906194505 91 32 8.0 15.0 0.00 0.00 0.00 62 1010.7
20260906193016 91 24 7.0 21.0 0.00 0.00 0.00 59 1013.9
20260906193004 91 24 5.0 13.0 0.00 0.00 0.00 59 1011.0
20260906191504 90 359 7.0 20.0 0.00 0.00 0.00 65 1011.2
20260906190114 91 33 6.0 17.0 0.00 0.00 0.00 69 1011.3
20260906190020 91 21 7.0 18.0 0.00 0.00 0.00 69 1014.2
20260906184600 91 1 6.0 17.0 0.00 0.00 0.00 70 1011.4
20260906183101 91 53 9.0 16.0 0.00 0.00 0.00 69 1011.4
20260906183016 91 12 6.0 17.0 0.00 0.00 0.00 70 1014.4
20260906181555 91 342 4.0 13.0 0.00 0.00 0.00 71 1011.5
20260906180051 91 360 5.0 13.0 0.00 0.00 0.00 72 1011.5
20260906180015 91 8 7.0 16.0 0.00 0.00 0.00 71 1014.4
20260906174549 90 13 5.0 13.0 0.00 0.00 0.00 72 1011.6
20260906173046 90 47 7.0 15.0 0.00 0.00 0.00 71 1011.8
20260906173016 90 3 6.0 16.0 0.00 0.00 0.00 72 1014.6
20260906171545 91 343 6.0 12.0 0.00 0.00 0.00 72 1011.7
20260906170044 90 23 5.0 11.0 0.00 0.00 0.00 75 1011.9
20260906170016 90 22 6.0 16.0 0.00 0.00 0.00 73 1014.6
20260906164542 90 17 6.0 10.0 0.00 0.00 0.00 72 1011.9
20260906163038 90 336 1.0 7.0 0.00 0.00 0.00 73 1012.0
20260906163015 90 13 3.0 10.0 0.00 0.00 0.00 73 1015.0
20260906161536 89 23 3.0 7.0 0.00 0.00 0.00 76 1012.3
20260906160034 89 15 3.0 7.0 0.00 0.00 0.00 74 1012.4
20260906160016 89 348 4.0 10.0 0.00 0.00 0.00 74 1015.2
20260906154530 89 12 4.0 8.0 0.00 0.00 0.00 75 1012.3
20260906153030 88 331 3.0 8.0 0.00 0.00 0.00 76 1012.3
20260906153020 87 20 4.0 10.0 0.00 0.00 0.00 76 1015.1
20260906151523 86 41 4.0 9.0 0.00 0.00 0.00 79 1012.3
20260906150032 86 15 3.0 7.0 0.00 0.00 0.00 80 1012.0
20260906150015 86 316 1.0 8.0 0.00 0.00 0.00 80 1014.7
20260906144523 85 305 1.0 5.0 0.00 0.00 0.00 85 1012.0
20260906143015 83 262 0.0 4.0 0.00 0.00 0.00 88 1015.1
20260906143012 83 272 1.0 4.0 0.00 0.00 0.00 88 1012.2
20260906141509 82 262 0.0 0.0 0.00 0.00 0.00 89 1012.2
20260906140016 81 234 0.0 4.0 0.00 0.00 0.00 90 1015.0
20260906140005 81 262 0.0 4.0 0.00 0.00 0.00 90 1012.2
20260906134503 80 211 0.0 2.0 0.00 0.00 0.00 92 1012.3
20260906133115 79 211 0.0 2.0 0.00 0.00 0.00 92 1012.4
20260906133035 79 198 0.0 4.0 0.00 0.00 0.00 92 1015.0
20260906131554 78 181 0.0 2.0 0.00 0.00 0.00 94 1012.5
20260906130051 77 181 0.0 2.0 0.00 0.00 0.00 96 1012.3
20260906130015 77 131 0.0 4.0 0.00 0.00 0.00 97 1015.1
20260906124548 76 122 0.0 2.0 0.00 0.00 0.00 98 1012.4
20260906123046 75 121 0.0 2.0 0.00 0.00 0.00 98 1012.4
20260906123035 75 124 0.0 3.0 0.00 0.00 0.00 98 1015.1
20260906121543 74 121 0.0 3.0 0.00 0.00 0.00 98 1012.1
20260906120042 74 127 1.0 3.0 0.00 0.00 0.00 98 1012.1
20260906120040 74 124 0.0 3.0 0.00 0.00 0.00 98 1014.9
20260906114539 74 115 0.0 0.0 0.00 0.00 0.00 98 1011.6
20260906113035 73 115 0.0 0.0 0.00 0.00 0.00 97 1011.3
20260906113015 73 0.0 0.0 0.00 0.00 0.00 97 1014.1
20260906111538 74 115 0.0 0.0 0.00 0.00 0.00 97 1011.1
20260906110034 74 115 0.0 0.0 0.00 0.00 0.00 97 1010.8
20260906110015 74 0.0 0.0 0.00 0.00 0.00 97 1013.5
20260906104537 74 115 0.0 0.0 0.00 0.00 0.00 97 1010.7
20260906103033 75 115 0.0 0.0 0.00 0.00 0.00 97 1010.6
20260906103015 75 0.0 3.0 0.00 0.00 0.00 97 1013.4
20260906101530 75 117 0.0 0.0 0.00 0.00 0.00 97 1010.4
20260906100023 75 117 0.0 0.0 0.00 0.00 0.00 97 1010.4
20260906100017 75 118 0.0 4.0 0.00 0.00 0.00 97 1013.3
20260906094523 75 117 1.0 3.0 0.00 0.00 0.00 97 1010.3
20260906093021 75 117 1.0 3.0 0.00 0.00 0.00 97 1010.6
20260906093017 75 114 0.0 4.0 0.00 0.00 0.00 97 1013.5
20260906091521 75 117 1.0 4.0 0.00 0.00 0.00 97 1010.4
20260906090024 75 38 0.0 0.0 0.00 0.00 0.00 96 1010.4
20260906090017 75 44 0.0 2.0 0.00 0.00 0.00 96 1013.2
20260906084519 75 38 0.0 0.0 0.00 0.00 0.00 96 1010.4
20260906083021 75 43 0.0 2.0 0.00 0.00 0.00 95 1013.2
20260906083018 75 38 0.0 2.0 0.00 0.00 0.00 95 1010.3
20260906081516 76 38 0.0 1.0 0.00 0.00 0.00 95 1010.1
20260906080017 76 44 0.0 3.0 0.00 0.00 0.00 95 1012.8
20260906074513 76 38 0.0 2.0 0.00 0.00 0.00 94 1010.0
20260906073018 77 38 1.0 3.0 0.00 0.00 0.00 93 1010.2
20260906073016 77 43 0.0 12.0 0.00 0.00 0.00 93 1013.0
20260906071511 77 37 0.0 2.0 0.00 0.00 0.00 93 1010.2
20260906070016 78 62 1.0 12.0 0.00 0.00 0.00 93 1013.0
20260906070011 78 37 0.0 2.0 0.00 0.00 0.00 93 1010.2
20260906064507 77 37 2.0 11.0 0.00 0.00 0.00 94 1010.3
20260906063016 77 0.0 0.0 0.00 0.00 0.00 96 1013.0
20260906063006 77 113 0.0 0.0 0.00 0.00 0.00 96 1010.2
20260906061504 77 113 0.0 0.0 0.00 0.00 0.00 95 1010.3
20260906060016 77 0.0 0.0 0.00 0.00 0.00 95 1013.3
20260906060003 77 113 0.0 0.0 0.00 0.00 0.00 95 1010.4
20260906054501 77 113 0.0 0.0 0.00 0.00 0.00 95 1010.4
20260906053059 77 113 0.0 0.0 0.00 0.00 0.00 95 1010.5
20260906053016 77 0.0 0.0 0.00 0.00 0.00 95 1013.4
20260906051558 77 113 0.0 0.0 0.00 0.00 0.00 95 1010.5
20260906050119 78 113 0.0 0.0 0.00 0.00 0.00 95 1010.6
20260906050021 78 0.0 0.0 0.00 0.00 0.00 95 1013.6
20260906044555 78 113 0.0 0.0 0.00 0.00 0.00 94 1010.8
20260906043057 78 113 0.0 0.0 0.00 0.00 0.00 94 1010.7
20260906043017 78 0.0 0.0 0.00 0.00 0.00 94 1013.7
20260906041554 78 113 0.0 0.0 0.00 0.00 0.00 94 1010.8
20260906040100 78 113 0.0 0.0 0.00 0.00 0.00 94 1010.9
20260906040016 78 0.0 0.0 0.00 0.00 0.00 94 1013.7
20260906034553 79 113 0.0 0.0 0.00 0.00 0.00 94 1010.8
20260906033103 79 113 0.0 0.0 0.00 0.00 0.00 94 1010.6
20260906033016 79 0.0 0.0 0.00 0.00 0.00 94 1013.4
20260906031551 79 113 0.0 0.0 0.00 0.00 0.00 94 1010.2
20260906030051 79 113 0.0 0.0 0.00 0.00 0.00 93 1010.0
20260906030016 79 0.0 0.0 0.00 0.00 0.00 93 1012.8
20260906024552 80 113 0.0 0.0 0.00 0.00 0.00 93 1010.0
20260906023049 80 113 0.0 0.0 0.00 0.00 0.00 93 1009.9
20260906023036 80 0.0 0.0 0.00 0.00 0.00 93 1012.5
20260906021552 80 113 0.0 0.0 0.00 0.00 0.00 92 1009.8
20260906020053 81 113 0.0 0.0 0.00 0.00 0.00 91 1009.8
20260906020016 81 0.0 0.0 0.00 0.00 0.00 91 1012.2
20260906014555 81 113 0.0 0.0 0.00 0.00 0.00 90 1009.7
20260906013049 82 113 0.0 0.0 0.00 0.00 0.00 89 1009.7
20260906013020 82 0.0 0.0 0.00 0.00 0.00 89 1012.2
20260906011546 83 113 0.0 0.0 0.00 0.00 0.00 88 1009.7
20260906010046 84 113 0.0 0.0 0.00 0.00 0.00 87 1009.5
20260906010016 84 0.0 0.0 0.00 0.00 0.00 86 1012.1
20260906004546 85 113 0.0 0.0 0.00 0.00 0.00 85 1009.4
20260906003045 86 113 0.0 0.0 0.00 0.00 0.00 83 1009.4
20260906003016 86 0.0 0.0 0.00 0.00 0.00 83 1012.0
20260906001544 88 113 0.0 0.0 0.00 0.00 0.00 82 1009.4
20260906000044 89 113 0.0 0.0 0.00 0.00 0.00 78 1009.4
20260906000036 89 0.0 0.0 0.00 0.00 0.00 78 1012.0
20260905234547 92 113 0.0 0.0 0.00 0.00 0.00 76 1009.4
20260905233043 93 113 0.0 0.0 0.00 0.00 0.00 73 1009.6
20260905233016 93 0.0 0.0 0.00 0.00 0.00 73 1012.4